SL-14 DEB, 45273

Orbit data source: Space-Track

SL-14 DEB, 45273 is space debris in LEO originally from a launch on Thu, 15 Aug 1991 UTC launched from the Plesetsk Missile And Space Complex (PKMTR). Debris objects in space refer to the collection of defunct objects orbiting the Earth. Examples of debris include non-operational satellites, rocket bodies, and fragments generated from explosions, collisions, or faulty payload assembly.

Loading next visibility...
Identifier
45273, 1991-056K
Orbit
LEO
Country
Flag of CISCIS
Related business
Manufacturer
Unknown
Mission
Spacecraft
Bus & Motor
Unknown
Mass
Unknown
Launch date (UTC)
1991-08-15 (34 years ago)
Launch vehicle
Unknown
Launch site
Plesetsk Missile And Space Complex (PKMTR)
Object type
Payload
Rocket body
Debris
Shape & HBR
Unknown shape, 0.1 m
Radar Cross Section
Small (<0.1 m²)

Expand to show TLE details & history
Last TLE update: 2 days ago

TLE from 2 days ago
0 SL-14 DEB
1 45273U 91056K   25350.01673313  .00001478  00000-0  23001-2 0  9999
2 45273  82.5652 199.0813 0119543 259.1983  99.5682 13.47379180286257
Epoch: 2025-12-16T00:24Z
TLE epoch observation values (Epoch: 2025-12-16T00:24:05.742Z)
Latitude
-0.00006°
Longitude
108.15037°
Altitude
1,100.628 km
Speed
7.294 km/s
True Right ascension
13h 16m 19s
True Declination
0° 00' 00"
Sunlit
Object was in daylight at epoch
Visualization orbit readout
Latitude
Unknown
Longitude
Unknown
Altitude
Unknown
Speed
Unknown
Apparent Right ascension
Unknown
Apparent Declination
Unknown
Sunlit
N/A
Visualization observer readout
Local Sidereal Time
07:24:40
Azimuth
Unknown
Elevation
Unknown
Doppler factor
Unknown
Orbital elements
Apogee altitude
1,168.264 km
Perigee altitude
989.972 km
Semi-major axis
7,457.255 km
Eccentricity
0.01195
Inclination
82.5652°
RAAN
199.0813°
Arg. of periapsis
259.1983°
True anomaly
100.91553°
Mean anomaly
99.5682°
Eccentric anomaly
100.24222°
Mean motion
3.37035 °/min
Orbital period
106.81 mins
BSTAR
0.0023001
Loading maneuver chart data...
Computing Atmospheric mass density...
Loading historical data...
Loading historical data...
Loading historical data...
Loading historical data...
Loading historical data...
Loading historical data...
Loading historical data...

Documentation

Showing up to 5 results
|